[Iaude] MPEC H26: 2022 QV60 [a=1.66,e=0.36,i=33.4,H=21.01]
    mpec at cfa.harvard.edu 
    mpec at cfa.harvard.edu
       
    Thu Apr 18 10:13:03 EDT 2024
    
    
  
M.P.E.C. 2024-H26                                Issued 2024 April 18, 14:11 UT
     The Minor Planet Electronic Circulars contain information on unusual
         minor planets, routine data on comets and natural satellites,
         and occasional editorial announcements.  They are published
    on behalf of Division F of the International Astronomical Union by the
          Minor Planet Center, Smithsonian Astrophysical Observatory,
                          Cambridge, MA 02138, U.S.A.
			  
             Prepared using the Tamkin Foundation Computer Network
                              MPC at CFA.HARVARD.EDU
            URL https://www.minorplanetcenter.net/    ISSN 1523-6714
                                   2022 QV60                                    
                           Revision to MPEC 2022-R108                           
Additional Observations:
     K22Q60V KC2024 04 11.33837313 48 43.220+03 12 02.00         22.78GVEH026V06
     K22Q60V KC2024 04 11.34631713 48 42.610+03 12 18.70         22.70GVEH026V06
     K22Q60V KC2024 04 11.36738113 48 40.920+03 13 03.40         23.06GVEH026V06
     K22Q60V KC2024 04 11.37532313 48 40.330+03 13 20.20         22.71GVEH026V06
     K22Q60V KC2024 04 17.41648213 40 47.040+06 46 47.90         22.86GVEH026V06
     K22Q60V KC2024 04 17.42680313 40 46.140+06 47 09.70         22.79GVEH026V06
     K22Q60V KC2024 04 17.43712713 40 45.320+06 47 31.20         22.70GVEH026V06
     K22Q60V 0C2024 04 17.54075813 40 36.955+06 51 12.18         22.95GVEH026T12
     K22Q60V 0C2024 04 17.55207313 40 36.006+06 51 35.97         23.06GVEH026T12
Observer details:
T12 University of Hawaii 88-inch telescope, Maunakea.  Observer D. J. Tholen.
    2.24-m f/10.1 reflector + 2112 x 2112 pixels STA1600 10k CCD.
V06 Catalina Sky Survey-Kuiper.  Observers V. F. Carvajal, G. J. Leonard, J.
    B. Fazekas.  Measurers T. Beuden, V. F. Carvajal, D. Fay, J. B. Fazekas,
    D. C. Fuls, A. R. Gibbs, A. D. Grauer, H. Groeller, J. K. Hogan, R. A.
    Kowalski, S. M. Larson, G. J. Leonard, D. Rankin, R. L. Seaman, F. C.
    Shelly, K. W. Wierzchos.  1.55-m reflector + 1K CCD.
First and last observations above in comparison with prediction:
Residuals in seconds of arc, reference and Delta-T
240411 V06 30.1+  6.9+    240417 T12 30.5+  8.3+    MPO782803   +0.03 days
Orbital elements:
2022 QV60                                                Earth MOID = 0.1200 AU
Epoch 2024 Mar. 31.0 TT = JDT 2460400.5                 Veres                   
M 264.36523              (2000.0)            P               Q                  
n   0.46021819     Peri.  140.34630     +0.87065246     +0.47580394             
a   1.6614739      Node   193.10375     -0.45565297     +0.87569519             
e   0.3636392      Incl.   33.39913     +0.18532313     -0.08227121             
P   2.14           H   21.01          G   0.15           U   1                  
Residuals in seconds of arc
220831 F52  0.0   0.1-    221003 H21  0.4+  0.4-    221006 C40  0.5+  0.4+
220831 F52  0.0   0.1-    221003 H21  0.1-  0.1+    221006 C40  0.2+  0.1+
220831 F52  0.1-  0.0     221003 H21  0.1-  0.1-    221006 C40  0.4-  0.1-
220831 F52  0.0   0.0     221003 H21  0.1-  0.0     221006 K74  0.3+  0.0
220901 H36  0.2-  0.6-    221003 H21  0.2-  0.1-    221006 K74  0.4+  0.2+
220901 H36  1.5+  0.4+    221003 H21  0.1+  0.1-    221006 K74  0.1-  0.5-
220901 H36  0.6+  0.8+    221004 G96  0.0   0.0     221007 C40 (0.5+  2.3-)
220902 H36  0.1+  0.0     221004 G96  0.1-  0.0     221007 C40 (0.9+  0.2-)
220902 I52  0.1+  0.9+    221004 G96  0.0   0.1+    221007 C40 (2.0+  4.4+)
220902 I52  0.1+  0.3-    221004 G96  0.1-  0.1-    221007 K83  0.3+  0.3-
220902 H36  0.5+  0.5-    221004 K74  0.4+  0.6-    221007 K83  0.2+  0.2+
220902 I52  0.2-  0.2-    221004 K74  0.4+  0.2-    221007 K83  0.0   0.3+
220902 I52  0.1+  0.0     221004 C95  0.7-  0.3+    221008 B72  0.4-  0.0
220902 H36  0.2-  0.2-    221004 K74  0.5+  0.1-    221008 B72  0.5+  0.2-
220903 568  0.0   0.0     221004 K74  0.1+  0.1+    221009 K74  0.1-  0.1+
220903 568  0.0   0.0     221004 K74  0.1+  0.0     221009 K74  0.1+  0.3+
220905 568  0.1-  0.0     221004 K74  0.1+  0.8-    221009 K74  0.4+  0.1-
220905 568  0.1+  0.1+    221004 K74  0.3-  0.2-    221010 L18  1.0+  0.6-
220905 568 (0.2+  0.0 )   221004 K74  0.3+  0.2-    221010 L18  0.6+  0.5-
220915 F52  0.1-  0.0     221004 K74  0.0   0.4-    221010 L18  0.6-  0.0
220915 F52  0.2+  0.1+    221004 C95  0.3+  0.3+    221013 H21  0.0   0.5+
220915 F52  0.3+  0.1-    221004 K87  0.3-  0.3-    221013 H21  0.1-  0.4+
220916 I52  0.1+  0.1+    221004 K19  0.1-  0.3+    221013 H21  0.1-  0.4+
220916 I52  0.2-  0.1-    221004 K87  0.1-  0.8+    221013 H21  0.2-  0.3+
220916 I52  0.2+  0.0     221004 K19  0.2-  0.3-    221013 H21  0.1-  0.4+
220916 I52  0.1-  0.2-    221004 K87  0.4-  0.2+    221013 H21  0.0   0.2+
220916 I52  0.2-  1.0-    221004 K19  0.1+  0.2+    221013 H21  0.3-  0.2-
220916 I52  0.2-  0.0     221004 K19  0.4+  0.6+    221013 807  0.1-  0.1+
220916 I52  0.3-  0.2-    221004 K19  0.1+  0.4-    221013 807  0.2+  0.0
220916 I52  0.4-  0.1+    221004 K19  0.1+  0.1-    221013 807  0.1+  0.1+
220918 G96  0.2-  0.1+    221004 L63  0.0   0.2-    221014 W68  0.2+  0.1+
220918 G96  0.1-  0.1+    221004 L63  0.3-  0.0     221014 W68  0.5+  0.4-
220918 G96  0.1-  0.1-    221005 H21  0.0   0.0     221014 W68  0.1+  0.6+
220918 G96  0.0   0.0     221005 H21  0.1+  0.1+    221014 W68  0.1-  0.6+
220922 B88  0.0   0.1-    221005 H21  0.2+  0.0     221019 703  0.5+  0.7+
220922 B88  0.0   0.2-    221005 H21  0.2+  0.1+    221019 703  0.1+  0.4+
220922 B88  0.1+  0.2-    221005 H21  0.0   0.3+    221019 703  0.5-  0.2-
220924 T12  0.1-  0.0     221005 H21  0.1+  0.1+    221019 703  0.2+  0.1-
220924 I52  0.5-  0.2-    221005 H21  0.1-  0.0     221114 807  0.0   0.2-
220924 I52  0.5-  0.1+    221005 H21  0.2+  0.1-    221114 807  0.3-  0.1-
220924 I52  0.1-  0.0     221005 H21  0.0   0.0     221114 807  0.1+  0.1-
220924 I52  0.1+  0.1+    221005 H21  0.0   0.2+    240411 V06  0.1-  0.0
220927 I52  0.1-  0.0     221005 H21  0.1+  0.0     240411 V06  0.1+  0.1-
220927 I52  0.9-  0.0     221005 K83  0.5-  0.1-    240411 V06  0.4-  0.1+
220929 T08  0.1-  0.6+    221005 K83  0.0   0.5-    240411 V06  0.2+  0.1+
220929 T08  1.1-  0.2-    221005 A17  0.1-  0.0     240417 V06  0.2+  0.1+
220929 T08  0.2+  0.1+    221005 K83  0.4+  0.7-    240417 V06  0.4-  0.2+
220929 T08  0.3+  0.9-    221005 A17  0.1-  0.1+    240417 V06  0.2+  0.1-
221002 Z80  0.0   0.2-    221005 A17  0.0   0.4+    240417 T12  0.0   0.1+
221002 Z80  1.1+  0.2+    221006 L76  0.1-  0.3+    240417 T12  0.0   0.0
221002 Z80  0.9-  0.3+    221006 L76  0.1-  0.1-
221003 H21  0.0   0.2-    221006 L76  0.1-  0.1+
Ephemeris:
2022 QV60                a,e,i = 1.66, 0.36, 33                  q = 1.0573
Date    TT    R. A. (2000) Decl.     Delta      r    Elong.  Phase     V
2024 03 19    14 09 30.0 -08 48 51   1.0560  1.9574   145.1    16.9    23.5
...
2024 04 03    13 58 16.9 -01 33 42   0.9240  1.9012   162.4     9.2    22.8
...
2024 04 11    13 49 08.7 +03 00 10   0.8806  1.8695   166.4     7.3    22.6
...
2024 04 17    13 41 21.0 +06 32 11   0.8614  1.8448   163.0     9.1    22.6
2024 04 18    13 40 00.3 +07 07 21   0.8593  1.8406   162.0     9.7    22.6
2024 04 19    13 38 39.1 +07 42 21   0.8575  1.8365   161.0    10.3    22.7
...
2024 04 25    13 30 28.8 +11 06 44   0.8532  1.8109   153.8    14.2    22.8
...
2024 05 03    13 20 01.3 +15 14 18   0.8629  1.7758   143.2    19.9    22.9
...
2024 05 18    13 04 50.3 +21 05 19   0.9172  1.7070   124.4    29.3    23.3
A. U. Tomatic                (C) Copyright 2024 MPC           M.P.E.C. 2024-H26
    
    
More information about the Iaude
mailing list